Theta_e
322 317 313 313 312 314 310 305 300 296 297 292 287 292 296 293 295 294 296 297 298 299 297 301 307 310 308 308 311 308 306 310 308 304 305 314 327 335 336 336 341 342 342 343 343 345 347 346 346 346 347 347 346 344 343 343 342 341 341 340 340 340 340 340 340 343 348 348 347 348 347 346 346 346 345 344 342 341 342 342 341 341 340 339 339 339 342 341 339 338 338 338 338 338 338 339 340
317 316 313 312 316 313 309 300 293 290 289 288 289 288 291 292 294 294 297 296 297 303 301 309 311 311 309 309 309 311 307 315 309 317 322 329 334 335 337 339 341 340 342 343 343 344 346 347 346 347 347 347 344 344 343 342 341 341 341 341 340 340 340 340 340 344 346 346 346 346 346 345 344 343 343 341 340 340 341 341 340 340 339 338 338 339 341 339 338 338 337 338 338 337 337 337 338
317 315 317 313 312 307 305 301 300 285 288 289 287 290 291 293 293 294 296 295 295 301 308 311 307 306 307 305 304 304 305 318 315 322 326 332 328 331 337 340 342 342 342 342 343 344 346 346 344 346 348 347 345 344 343 342 341 341 340 340 340 340 340 340 339 343 346 346 345 345 346 346 346 345 344 343 342 341 340 340 340 339 338 338 340 340 340 341 342 340 339 339 338 338 337 337 336
317 315 314 310 311 304 300 293 291 288 288 286 285 289 290 293 293 294 294 293 306 304 300 303 306 302 306 301 304 312 312 315 322 325 324 328 331 335 337 340 343 343 343 342 343 344 346 345 345 346 348 347 346 345 343 342 342 341 340 340 339 340 340 340 341 345 346 345 345 345 346 346 345 343 341 340 339 339 339 339 338 338 337 338 339 339 339 341 341 340 339 338 338 338 337 337 339
315 318 311 308 306 305 295 290 288 288 291 286 291 290 291 291 295 292 298 293 305 297 298 302 308 311 309 308 312 309 309 318 322 327 328 332 337 337 338 341 342 342 342 343 344 344 345 343 344 347 347 346 345 344 343 343 342 341 340 340 340 340 340 339 338 342 342 344 345 345 345 344 343 342 340 338 337 337 338 338 337 336 337 337 337 339 340 340 341 340 338 338 338 338 337 338 338
311 311 311 310 307 305 296 293 292 292 292 288 292 292 291 292 294 293 299 298 299 297 297 299 306 309 311 313 313 314 313 318 325 326 330 331 337 338 338 341 341 341 342 344 344 344 345 341 345 346 347 345 345 344 343 343 343 341 341 341 340 340 340 340 339 340 341 341 342 344 345 345 344 343 340 337 337 337 337 337 336 337 337 337 337 338 341 341 340 340 340 340 338 339 338 338 337
313 307 306 307 302 300 296 290 288 286 291 290 294 292 293 292 294 297 299 302 300 298 295 301 305 306 306 307 314 318 318 323 326 327 332 334 339 338 339 340 341 341 342 344 344 343 344 340 346 347 347 346 346 344 343 343 342 342 341 340 339 339 339 339 338 340 340 340 341 342 343 343 343 342 341 338 336 336 336 336 336 338 337 337 338 338 339 340 340 341 341 341 340 338 339 339 339
313 311 305 300 297 295 289 286 288 287 294 289 292 293 294 294 293 300 297 301 300 299 300 301 300 302 302 311 312 319 318 321 327 327 333 337 338 338 338 340 340 341 342 343 344 343 343 340 346 346 347 346 345 345 344 344 342 341 340 340 339 338 338 339 339 339 339 339 341 341 341 343 342 343 341 338 336 335 335 335 336 336 336 337 337 338 338 341 340 340 341 341 340 340 339 339 339
306 304 300 300 295 289 285 290 290 288 289 290 292 292 303 294 294 298 296 295 295 295 302 306 301 298 299 307 310 317 321 323 326 331 337 337 337 337 337 338 339 340 342 342 343 344 345 339 344 345 345 346 345 345 344 343 343 342 341 340 339 339 339 340 339 338 339 339 337 340 339 339 341 342 341 338 336 335 334 334 336 337 337 337 337 338 338 338 339 340 340 341 340 339 339 339 339
305 304 299 296 291 294 285 289 292 293 292 293 294 297 293 293 293 295 297 297 296 300 303 298 299 298 301 306 311 318 323 322 333 334 337 337 337 337 337 337 341 341 341 342 343 344 345 344 340 342 344 345 346 345 344 343 343 342 342 341 341 340 339 339 338 339 339 339 338 338 339 339 339 341 340 338 337 335 334 334 336 336 336 337 337 338 338 339 341 340 341 340 339 338 338 339 339
300 298 297 299 286 288 289 290 286 289 292 291 292 292 294 293 294 292 293 296 294 301 300 297 302 302 306 307 311 317 317 324 332 331 335 337 338 336 336 337 340 341 341 342 343 344 345 346 341 339 341 342 343 345 345 344 343 342 341 341 341 341 340 339 339 339 339 339 338 338 339 340 339 340 339 337 337 335 334 334 337 337 338 337 337 337 338 339 339 340 339 339 338 338 339 339 339
300 296 295 286 287 290 287 288 288 288 291 290 297 294 294 294 294 295 295 297 296 296 300 301 303 307 304 303 309 318 318 327 331 335 336 338 337 338 336 338 340 341 342 342 343 344 345 345 346 341 335 336 340 342 343 343 344 342 342 341 341 340 340 339 340 339 339 339 338 337 340 339 338 337 338 337 336 335 334 334 337 337 337 337 337 337 338 338 338 338 338 337 337 337 338 338 339
298 294 291 290 290 289 287 287 291 294 289 292 296 296 293 296 297 294 292 295 294 296 298 298 303 305 300 304 308 311 322 328 331 335 337 337 337 338 338 338 338 340 341 342 343 343 344 344 345 344 339 332 333 336 338 340 341 342 342 342 342 341 341 340 340 340 338 338 338 337 341 340 340 338 337 336 335 334 334 335 337 336 337 336 336 336 336 336 337 337 337 336 336 336 336 336 337
298 295 294 294 286 286 287 289 287 294 291 295 291 293 293 296 295 293 294 295 294 296 298 296 307 303 303 301 305 312 322 327 331 335 337 337 338 337 337 338 338 339 340 341 341 342 343 343 343 344 342 342 343 337 333 337 339 340 340 340 340 340 341 341 341 340 340 340 339 337 337 337 339 339 338 335 334 334 335 336 334 336 335 335 335 334 335 337 336 336 336 336 336 336 336 335 335
303 294 290 286 285 289 287 291 291 286 294 292 295 293 294 297 292 291 296 294 296 295 298 303 308 302 298 297 297 309 320 327 331 334 334 335 336 336 336 337 337 338 339 340 341 342 342 342 342 341 341 342 341 342 343 341 334 336 337 337 338 339 339 339 339 336 336 335 334 333 333 333 333 334 337 336 335 334 333 334 337 337 336 335 334 334 335 336 336 335 336 335 335 334 335 335 334
299 294 290 290 290 288 290 287 283 289 292 291 293 290 295 294 291 295 295 297 297 298 300 306 304 303 301 302 307 304 321 326 332 333 333 334 335 335 336 335 336 337 338 339 341 342 342 342 341 341 340 340 340 341 342 343 334 331 333 334 335 336 337 336 334 331 328 326 327 327 327 330 327 329 326 332 332 332 329 329 334 336 335 334 333 333 334 335 335 335 335 335 334 334 334 333 331
297 297 293 286 290 289 290 289 289 293 290 289 290 292 296 296 294 293 293 294 299 299 299 303 302 310 302 303 307 314 319 328 330 332 332 332 333 333 334 334 334 334 336 337 339 340 341 341 340 341 341 339 338 340 341 341 338 331 332 330 331 332 332 332 329 324 323 323 324 322 324 330 331 331 332 333 325 332 323 325 333 335 334 333 333 332 333 334 334 334 333 333 332 330 327 327 328
295 292 287 290 287 289 290 291 290 292 292 293 291 291 295 294 294 298 296 297 294 296 300 300 305 307 309 311 311 313 323 328 331 330 330 330 331 330 331 332 332 331 334 335 338 340 340 341 340 340 340 338 338 339 340 340 338 335 338 338 338 335 329 326 330 331 326 329 320 326 328 327 328 329 330 327 331 331 329 322 325 332 334 332 332 332 332 333 333 332 331 330 327 324 320 324 323
291 287 290 292 287 292 293 290 291 292 296 291 291 289 294 294 294 296 296 294 292 298 297 296 303 304 309 313 313 318 324 328 330 330 329 329 330 329 330 330 330 331 332 335 336 338 340 340 341 340 340 339 338 339 340 340 339 339 338 336 335 329 331 330 331 329 329 328 327 327 326 327 327 328 328 328 328 322 329 321 324 328 331 330 331 331 332 332 331 330 328 326 322 318 320 320 320
292 294 292 287 291 291 290 289 291 291 291 291 291 290 292 293 294 294 297 293 293 295 295 296 298 300 306 309 314 321 324 326 329 329 329 329 330 330 330 330 330 330 332 333 335 338 339 339 340 340 340 339 338 338 339 339 339 339 338 336 334 333 332 330 329 328 328 327 326 326 326 325 326 328 322 322 323 330 327 321 322 323 323 322 322 327 328 329 328 326 323 320 317 317 318 318 318
295 291 287 293 289 293 293 288 289 288 291 291 291 290 293 292 291 294 292 295 294 293 292 299 299 298 303 309 317 322 323 325 328 328 328 329 330 332 331 331 331 331 333 335 335 336 338 339 339 339 340 339 339 338 338 338 339 338 338 335 332 332 331 329 328 327 327 326 325 325 325 325 326 326 326 327 327 328 329 329 329 327 325 323 318 321 320 318 318 318 317 316 317 317 318 317 318
292 293 291 290 288 292 292 288 289 288 288 291 288 294 294 292 293 290 293 294 293 294 298 295 297 298 307 313 318 322 323 325 326 327 327 328 329 330 332 333 334 334 334 333 334 335 337 338 339 339 339 339 339 338 338 338 338 337 337 335 332 331 330 329 327 327 326 325 325 324 324 325 325 325 325 326 326 327 327 327 326 325 323 319 318 317 315 315 315 316 316 316 315 315 315 315 316
297 291 289 289 288 293 291 289 289 288 290 291 291 293 292 293 293 287 292 296 293 293 294 292 294 298 313 316 319 321 323 324 325 326 327 327 328 330 331 332 332 332 333 333 335 335 337 338 338 339 338 339 338 338 338 337 338 338 338 335 333 330 329 329 327 326 326 324 324 323 324 324 324 325 324 325 325 325 326 325 325 324 321 317 315 315 314 313 314 314 314 314 313 314 313 313 314
291 293 290 292 289 292 289 290 287 286 290 290 291 291 293 291 294 290 290 294 293 292 290 290 290 307 315 317 319 321 323 324 325 327 328 328 328 329 331 331 333 334 333 334 335 335 335 337 338 339 338 338 338 338 337 336 337 337 338 334 334 330 328 328 327 326 325 324 323 323 324 324 324 324 324 324 324 324 325 323 322 322 320 315 313 314 313 312 312 312 313 313 313 313 313 313 313
293 292 290 291 289 291 288 286 286 287 288 289 290 293 292 289 292 290 292 294 293 292 299 301 305 310 312 317 318 321 322 324 325 326 327 328 327 328 328 331 333 333 331 333 334 335 335 336 338 338 338 337 338 339 336 336 337 337 337 335 334 328 330 327 326 325 325 324 323 323 323 323 323 324 323 323 322 323 322 322 322 321 318 313 312 311 312 312 311 312 312 313 312 312 312 312 312
291 292 289 290 291 289 289 289 287 288 290 288 292 290 290 289 290 292 294 292 290 291 301 304 308 310 311 315 318 320 321 322 324 325 326 326 323 325 326 329 331 331 332 333 334 334 336 336 336 337 337 338 338 338 337 335 335 336 336 335 336 331 332 330 326 325 325 324 323 322 322 323 323 323 323 322 322 322 321 320 321 320 317 312 312 311 310 311 311 311 311 311 312 312 312 311 312
289 289 289 291 291 290 290 291 289 288 292 288 292 290 291 291 291 291 292 291 287 298 299 301 306 309 310 312 315 318 319 320 322 324 322 323 322 323 325 327 329 331 333 332 333 334 335 335 336 336 337 334 338 337 337 336 335 335 335 336 336 333 333 331 327 325 324 324 324 322 322 322 322 322 322 321 322 322 321 320 320 319 316 312 312 310 309 310 310 311 311 311 311 311 310 310 311
290 290 289 290 287 290 289 290 289 290 294 288 291 291 291 291 291 291 292 290 290 294 297 300 301 305 309 309 311 314 316 318 318 320 322 322 323 323 323 324 326 329 331 332 333 335 335 335 335 336 337 336 335 337 337 336 335 335 335 335 335 334 334 332 329 327 322 323 323 323 322 321 321 321 321 320 322 321 320 320 319 318 318 311 311 309 308 309 309 309 308 309 309 310 309 309 309
289 292 292 289 285 291 290 291 290 290 293 290 289 292 290 291 290 291 288 288 290 293 296 298 300 300 302 306 308 311 314 314 314 318 321 324 325 326 324 325 325 326 331 333 333 333 334 334 335 335 336 336 336 336 337 337 336 335 335 335 335 335 333 333 331 328 326 323 323 323 322 321 320 320 320 320 319 320 320 319 319 318 317 312 311 309 308 307 307 307 307 306 307 308 308 308 307
290 289 286 288 285 287 290 288 289 291 292 289 289 287 284 284 289 290 288 287 289 292 292 292 295 297 299 300 306 310 311 310 313 317 320 321 322 323 324 325 324 325 326 328 331 332 334 335 335 336 335 335 334 336 336 336 337 336 335 336 334 334 334 333 333 331 329 325 323 322 322 321 320 320 319 318 319 319 318 319 319 317 316 311 310 308 307 307 307 307 306 307 306 308 309 308 308
291 288 285 284 288 286 288 289 288 292 291 287 290 287 283 283 286 289 287 287 293 293 290 289 288 290 292 295 300 307 310 311 314 316 316 317 319 320 321 323 323 324 324 325 328 332 333 334 334 335 334 335 333 335 334 336 337 336 335 336 335 334 334 334 334 332 331 328 325 323 321 321 320 320 319 318 317 317 316 316 317 317 315 311 310 308 307 305 306 306 305 307 306 306 306 305 306
281 286 285 282 284 285 285 289 287 291 293 289 289 285 287 288 287 285 287 287 290 292 291 290 288 289 289 291 294 297 304 309 311 312 314 316 317 318 319 320 322 323 323 324 325 327 331 333 334 334 334 334 335 334 335 336 336 337 336 331 336 334 333 333 333 333 332 330 327 326 324 321 320 319 319 318 316 316 316 315 316 316 315 311 310 307 306 305 305 306 305 308 306 306 305 305 305
281 285 282 285 283 281 284 291 286 288 290 291 289 286 283 290 290 288 285 288 289 290 289 289 288 288 289 291 292 294 295 297 299 304 310 314 316 317 318 319 320 322 323 323 323 324 327 330 332 333 333 334 334 335 335 335 336 336 336 336 336 335 333 333 333 334 333 332 329 327 325 323 321 320 319 318 316 315 315 315 315 315 315 313 311 308 306 307 305 305 305 306 309 307 305 306 304
287 281 282 280 283 282 284 286 289 288 290 291 288 289 286 288 288 287 287 289 290 290 292 291 291 291 291 291 291 292 293 295 297 298 300 307 314 316 317 317 319 319 321 322 323 324 325 327 330 332 334 334 334 335 334 334 335 335 336 336 333 335 334 334 333 333 333 332 331 329 327 325 323 323 321 319 318 316 315 315 315 315 314 313 312 309 308 307 307 307 305 305 307 307 305 306 305
283 284 282 284 281 280 281 285 288 288 289 289 287 288 290 292 292 293 292 289 289 291 292 292 292 291 292 291 291 291 292 294 296 298 298 299 304 310 315 317 317 317 319 320 321 322 323 324 326 328 330 333 334 335 334 334 335 335 335 335 334 335 335 335 334 333 333 333 331 330 328 326 323 323 321 320 319 319 317 316 315 313 313 313 313 311 310 307 306 306 306 305 305 307 306 306 306
285 286 283 280 283 283 283 282 283 288 289 289 286 288 289 290 291 293 293 288 290 291 290 290 291 291 291 291 292 292 293 293 296 297 297 297 298 301 306 312 315 316 317 317 318 320 321 323 324 326 328 332 333 334 333 332 332 332 331 332 332 332 334 332 334 334 334 333 333 331 330 329 327 324 323 322 321 319 318 316 315 314 313 312 311 310 308 306 304 304 305 305 303 303 304 305 304
283 281 280 281 280 283 282 284 288 285 288 288 286 285 285 289 291 293 294 291 290 290 291 292 292 292 292 292 292 293 293 295 297 296 296 296 297 297 299 304 309 312 315 316 316 318 320 321 321 322 326 329 331 331 331 331 330 330 330 331 330 332 331 332 331 333 333 333 333 333 331 330 329 326 324 323 322 318 319 319 317 314 312 312 311 310 310 309 307 306 306 305 304 303 302 301 301
285 282 282 281 284 284 286 288 286 285 288 285 281 285 289 290 291 292 292 289 291 292 292 292 292 292 292 292 292 293 294 294 294 296 296 294 295 295 295 297 301 305 309 313 315 316 318 319 320 322 323 326 329 331 331 330 331 331 330 330 330 331 329 328 330 331 332 333 333 332 331 331 330 328 325 325 323 322 320 319 317 315 311 310 311 312 310 308 308 306 305 303 303 302 302 300 300
281 284 281 283 283 282 285 285 285 285 288 285 283 287 290 292 292 293 291 291 291 290 290 291 291 292 292 293 292 292 292 293 293 293 292 292 293 293 293 295 296 301 304 309 312 314 315 316 319 320 321 323 326 329 330 329 331 331 331 330 330 328 328 330 331 330 330 330 331 333 334 333 332 330 328 325 325 324 322 321 320 318 312 310 310 310 309 309 308 306 304 303 302 302 303 301 299
282 282 285 282 282 285 286 286 285 285 287 288 286 285 289 287 284 283 285 286 287 286 286 287 289 290 291 292 291 291 291 292 293 293 294 293 292 292 292 292 295 296 299 303 307 311 313 315 317 318 319 321 323 325 326 329 327 326 325 326 326 329 326 319 324 323 327 330 330 330 330 332 332 333 332 329 326 326 324 322 322 319 316 314 314 311 309 308 309 308 306 305 305 301 301 300 301
283 282 281 282 285 283 283 286 284 282 285 283 284 285 285 280 282 283 286 282 284 286 284 286 286 287 288 288 287 288 290 291 292 292 293 292 292 293 293 292 292 295 298 301 304 308 311 313 315 317 318 319 320 321 323 324 322 322 321 317 317 318 317 318 320 322 323 322 325 327 329 330 331 330 331 330 326 327 326 325 323 321 318 315 312 310 309 309 309 309 308 305 304 304 302 302 300
286 282 283 283 283 284 284 284 284 279 286 282 281 282 279 279 282 281 282 284 287 285 286 289 289 290 289 293 294 294 290 288 289 291 292 291 292 293 294 293 293 294 295 299 302 306 309 311 313 315 316 317 319 319 321 322 323 324 321 321 319 319 320 319 319 322 321 320 323 326 326 328 329 331 332 331 329 326 328 327 326 323 320 317 313 312 312 312 310 309 308 307 305 305 307 305 300
284 287 284 282 284 284 283 283 283 281 281 284 280 281 276 279 283 283 281 281 284 286 286 289 289 290 291 292 293 294 294 294 292 291 293 295 296 295 297 296 295 295 296 294 296 302 306 309 311 314 316 316 317 318 319 320 322 323 323 323 323 322 321 323 324 324 325 324 323 323 325 325 327 328 329 331 331 329 328 328 326 325 323 321 316 314 313 312 311 309 309 308 307 306 305 303 301
285 283 282 284 285 286 283 283 284 282 281 285 280 278 279 279 284 282 280 282 282 285 289 290 290 290 291 292 292 293 294 294 293 295 295 295 295 295 296 296 296 296 294 293 296 298 304 307 309 311 313 314 315 317 317 320 321 321 321 322 322 322 322 322 323 322 319 319 321 322 323 324 325 326 327 328 329 329 327 328 328 326 325 324 320 317 316 316 314 312 310 310 309 307 305 304 304
284 282 283 284 284 282 282 283 282 281 283 283 279 282 281 276 283 282 281 290 282 286 289 290 289 290 290 292 293 293 293 293 292 294 296 295 296 296 295 296 296 294 294 295 296 297 299 303 305 306 310 312 312 314 317 317 320 320 320 320 319 320 321 321 314 311 317 315 317 318 317 320 322 324 325 326 327 328 326 326 327 327 326 325 319 321 319 318 316 314 311 309 309 309 307 307 307
285 282 283 282 281 281 282 281 283 280 277 275 280 279 276 277 279 281 281 285 283 286 289 288 287 288 290 291 292 292 293 293 293 294 294 295 295 294 293 293 295 295 293 294 295 297 299 301 303 305 307 309 309 311 314 315 316 316 318 318 318 319 318 315 313 315 311 309 313 315 314 315 317 320 322 323 324 325 326 326 325 325 326 326 322 323 322 320 319 317 314 311 309 308 308 306 305
285 284 287 284 281 280 278 278 278 277 273 275 277 277 279 276 281 281 287 287 282 284 286 287 288 291 291 290 290 292 292 294 295 295 295 296 295 294 294 295 294 295 294 295 296 296 297 300 302 304 303 304 305 309 311 313 314 315 317 317 317 316 316 315 314 314 311 307 310 312 311 312 314 315 318 320 321 322 323 324 324 325 326 322 322 323 322 321 321 319 317 314 311 310 310 309 307
285 284 281 285 282 278 278 273 274 273 267 269 276 277 278 276 277 284 282 282 280 286 288 287 290 289 290 290 290 291 291 293 294 295 296 296 297 297 297 297 296 295 295 295 295 295 296 298 301 302 301 301 303 305 308 310 312 313 314 316 316 316 316 315 315 315 314 313 313 313 311 309 309 310 313 315 317 318 320 321 322 323 322 323 323 324 323 323 323 321 318 316 314 312 311 309 308
285 284 286 280 272 269 275 267 275 272 269 279 276 276 278 279 280 283 283 282 282 282 287 290 288 290 289 290 290 289 291 292 294 295 296 296 296 296 296 296 297 297 296 294 293 294 295 296 297 301 301 297 299 301 305 306 308 310 312 313 314 314 313 314 314 315 314 312 313 312 310 310 310 308 309 310 313 316 318 318 319 320 320 321 322 323 323 323 322 321 319 318 317 315 314 312 309
284 286 281 277 271 267 267 261 261 266 272 275 279 277 277 278 282 284 287 287 284 283 282 284 286 288 289 289 288 288 292 292 293 294 295 295 295 296 295 295 295 295 295 295 295 294 294 295 295 298 298 296 296 299 300 302 304 305 306 308 310 311 311 311 312 313 313 312 312 312 311 311 311 310 310 310 312 313 315 316 317 318 319 320 320 321 321 322 322 321 320 318 317 317 317 314 312
286 283 286 282 272 268 267 265 272 271 270 273 274 274 274 277 283 285 282 284 283 282 282 282 283 283 284 283 284 287 292 292 292 294 294 294 294 294 295 295 295 295 295 295 295 294 295 296 296 297 298 297 296 297 297 299 301 301 302 303 305 306 308 309 310 310 311 310 310 310 310 310 310 311 310 310 309 309 311 313 315 316 317 317 318 318 318 319 319 317 315 316 316 316 313 311 311
283 280 283 281 280 276 269 265 264 264 269 270 275 275 276 283 285 284 282 282 284 282 283 283 286 285 284 289 292 292 292 292 292 294 294 293 294 294 295 295 295 295 294 295 295 295 295 295 295 295 296 296 295 296 297 297 299 299 299 300 302 303 304 304 305 306 307 307 308 308 309 309 309 309 309 307 307 307 308 309 310 312 314 315 316 316 317 317 317 317 317 316 315 313 312 311 311
285 284 280 282 281 279 271 267 271 270 268 271 268 277 280 281 283 282 282 285 284 283 284 283 286 287 288 290 292 292 292 291 293 293 293 293 294 294 294 294 294 294 294 294 294 293 294 294 295 296 296 295 296 296 296 296 297 297 298 298 299 300 301 302 304 304 305 305 305 306 306 307 306 306 307 305 306 305 306 307 308 308 309 311 313 314 314 314 315 315 314 314 314 315 312 312 311
284 280 283 282 281 281 277 272 265 263 269 270 271 275 278 275 280 281 285 285 286 284 284 285 286 287 291 291 291 292 292 292 291 291 291 292 292 292 293 294 294 293 294 294 294 293 293 293 294 295 295 296 296 295 296 296 296 297 297 298 298 299 300 301 302 302 303 302 303 303 303 303 304 305 304 304 304 304 304 302 305 306 306 307 309 311 311 311 312 312 312 312 313 313 312 312 312
284 282 285 285 279 277 277 273 267 267 266 264 268 273 273 277 280 280 283 284 284 284 284 286 288 289 291 291 292 292 292 291 292 292 292 292 292 293 293 293 293 293 293 293 294 294 294 294 293 294 295 295 295 295 294 294 294 295 296 297 297 298 298 299 300 300 300 300 301 302 302 303 302 302 302 302 301 301 301 301 302 303 304 304 305 306 307 308 309 309 309 309 310 310 310 309 310
285 286 284 284 281 277 275 276 271 273 266 264 269 269 276 278 279 279 286 284 285 285 285 288 290 290 290 290 291 291 292 291 291 292 292 292 292 292 292 292 293 293 293 293 294 294 294 294 294 294 294 294 294 294 293 294 293 294 294 294 295 295 296 297 298 298 299 299 300 300 301 300 302 301 301 300 300 300 300 300 300 301 301 302 302 303 303 305 306 306 307 307 307 307 307 307 307
282 282 282 285 280 282 281 277 275 275 266 265 263 268 272 277 279 281 284 282 284 288 289 289 289 290 289 290 290 291 290 291 290 291 292 292 292 292 292 292 292 292 292 293 293 293 293 293 293 293 294 294 294 294 294 294 293 293 292 293 294 293 294 295 294 295 296 297 298 298 298 299 296 298 299 298 298 299 299 299 299 299 299 300 301 301 301 302 302 303 304 305 305 305 305 305 305
286 285 284 286 281 279 277 277 276 267 272 267 264 273 273 279 279 283 283 281 285 287 292 290 289 289 289 289 290 290 291 290 289 289 290 291 291 291 292 292 292 292 292 292 292 293 293 292 292 292 293 293 293 293 293 292 293 292 292 292 292 291 292 292 292 293 293 294 294 295 295 294 295 297 296 297 297 298 298 298 298 299 299 299 299 300 301 301 300 300 301 303 303 303 303 303 303
Wind_Speed
6 5 3 3 4 2 2 7 1 3 2 0 0 1 1 1 1 2 3 1 1 1 2 3 5 6 3 4 6 4 0 6 5 3 2 1 1 7 5 4 11 11 10 7 7 7 6 5 8 8 9 12 11 10 11 11 11 10 10 9 7 10 10 11 10 12 14 14 13 13 14 14 15 15 14 14 14 13 13 13 14 14 15 14 13 14 16 16 15 15 15 15 15 15 15 15 16
4 4 4 2 1 1 0 1 5 3 5 3 4 1 2 2 2 6 8 6 3 0 2 4 4 5 5 4 6 6 2 2 3 1 2 2 6 6 3 9 11 12 10 9 7 7 7 8 9 10 12 12 11 11 11 11 11 10 9 9 9 10 10 11 10 13 13 13 13 13 13 14 14 14 14 13 13 14 13 13 13 13 13 14 14 15 15 15 15 15 15 16 16 15 14 14 15
4 6 1 3 4 5 3 4 2 1 2 1 3 6 3 4 6 6 7 4 1 1 2 5 4 2 2 2 2 1 2 1 1 3 3 7 11 6 6 11 10 10 10 8 8 8 4 6 9 10 12 12 12 11 11 12 11 10 9 9 9 10 10 10 10 12 13 12 11 12 13 14 15 15 15 14 14 13 13 13 14 13 13 14 14 13 14 15 16 17 15 16 16 16 15 14 14
2 6 2 3 2 3 1 4 4 6 2 3 3 4 6 7 7 6 5 2 5 4 1 2 3 1 1 1 1 3 2 1 3 4 5 8 3 7 9 10 9 8 8 7 8 7 4 6 8 9 12 12 12 12 11 11 10 10 10 9 9 8 10 10 10 13 12 12 11 12 13 14 14 15 15 14 13 12 13 13 13 13 14 14 13 13 14 15 15 16 15 15 15 15 16 15 15
3 3 2 4 3 1 3 1 3 3 1 5 1 3 6 6 4 4 1 3 5 1 3 1 3 3 1 3 2 1 1 1 1 4 2 4 2 7 9 9 10 9 8 8 8 8 7 7 7 8 13 13 12 12 11 11 11 10 10 10 10 10 9 10 10 12 12 13 13 12 12 13 13 14 14 14 12 12 12 13 13 13 13 13 13 13 14 15 15 15 15 15 14 14 14 14 14
4 3 4 2 1 2 5 1 2 1 4 6 0 2 7 6 6 6 5 2 3 3 1 3 1 5 1 2 1 2 3 1 4 4 5 4 7 8 10 7 9 9 9 8 8 7 5 6 7 9 11 13 13 12 11 11 11 11 10 10 10 9 10 10 9 9 11 11 12 12 12 13 14 15 15 14 13 12 12 13 13 12 12 12 12 13 15 14 15 14 14 14 14 14 14 14 14
1 4 5 4 2 4 3 2 2 3 2 5 1 3 5 6 5 9 4 2 1 1 3 2 2 3 4 2 1 2 2 0 5 2 6 6 8 9 10 8 9 9 9 7 7 6 5 6 10 10 10 11 13 12 11 11 11 11 11 11 10 9 9 10 9 10 11 11 11 12 12 12 13 14 15 14 12 11 13 13 12 13 12 11 12 12 14 14 14 14 14 15 15 14 14 14 14
2 2 1 2 0 3 2 1 1 5 2 6 1 4 1 5 6 6 7 4 1 2 1 2 2 1 0 1 4 1 2 2 1 1 5 8 9 9 10 10 10 9 8 6 7 6 7 7 10 9 10 11 12 11 11 11 11 10 11 12 11 10 10 10 9 9 10 11 11 10 12 14 13 14 13 13 13 11 12 12 12 12 11 12 12 12 13 14 13 13 14 15 15 15 15 15 15
5 7 1 4 1 4 3 1 1 3 6 2 6 6 4 6 3 8 6 2 2 2 3 4 5 1 4 2 3 2 1 3 1 5 9 10 10 10 8 10 10 9 7 6 6 7 7 6 9 7 10 11 12 12 11 10 11 10 11 11 11 11 10 9 9 9 9 9 9 11 10 11 12 13 13 13 12 11 8 10 12 12 11 10 11 11 11 11 12 13 14 14 13 14 14 14 14
3 2 1 2 4 0 3 1 1 2 1 2 2 0 4 5 4 3 7 1 2 0 4 2 3 1 4 3 2 1 2 3 7 8 9 11 10 9 9 10 10 10 7 6 6 7 6 7 8 7 9 10 10 10 10 10 10 10 10 10 10 10 10 9 8 8 8 10 10 10 10 11 11 12 12 12 11 11 9 8 13 11 11 10 10 10 10 12 13 13 13 14 13 13 13 13 13
0 5 3 2 3 1 1 1 3 3 2 5 5 6 4 5 5 4 1 1 2 2 2 0 1 4 2 2 2 1 3 2 9 9 10 11 10 10 9 8 9 10 9 6 6 7 7 7 8 7 9 10 9 10 10 10 10 10 9 9 9 9 9 9 8 7 6 9 10 10 11 11 12 12 12 12 10 9 9 9 13 11 11 10 10 10 10 11 11 12 13 13 13 12 12 12 13
1 1 2 3 2 2 3 3 1 6 7 2 2 1 4 7 4 3 1 1 1 1 4 5 2 8 3 1 1 2 2 6 9 9 10 10 9 9 8 6 9 9 10 6 6 6 7 7 7 6 8 9 9 9 9 8 9 9 8 9 9 8 8 8 8 7 6 9 9 9 12 11 10 11 11 12 11 9 8 9 13 11 11 11 10 10 10 11 12 12 12 12 11 11 11 11 12
3 1 5 5 0 1 1 1 0 3 5 1 3 0 4 6 4 4 4 1 0 3 5 9 1 1 2 2 2 4 4 7 6 9 10 10 9 8 7 7 8 8 8 9 8 6 6 7 7 6 5 8 8 8 7 7 7 7 7 8 8 8 8 8 8 7 7 8 8 7 7 9 9 10 10 9 10 9 7 7 12 12 11 10 9 9 10 10 11 11 11 11 11 11 11 11 12
4 6 5 1 2 3 3 0 2 2 1 1 3 1 4 3 3 5 7 3 3 3 2 1 2 3 1 1 1 3 5 8 9 8 7 9 7 9 8 7 8 7 8 9 9 8 5 6 6 5 5 5 5 6 7 7 7 7 7 7 6 6 7 7 6 6 6 8 8 9 9 10 9 8 7 7 8 9 6 5 9 11 11 10 9 9 10 10 11 11 11 11 11 11 11 12 12
2 2 6 5 2 0 1 2 2 4 2 1 1 6 3 2 5 4 6 4 6 3 3 1 2 1 4 6 3 6 7 10 10 8 8 7 7 9 8 7 8 8 7 8 8 8 6 6 6 5 5 4 5 4 3 5 7 6 7 7 6 6 6 6 6 7 8 8 8 9 9 9 8 9 9 11 11 9 5 3 6 12 13 11 9 8 8 10 11 11 11 11 12 12 12 12 12
5 6 4 3 0 3 2 2 2 3 2 4 0 3 3 1 1 4 5 1 1 1 1 3 0 1 1 2 0 3 8 10 9 9 9 9 8 8 8 7 7 8 7 8 8 8 6 6 5 5 6 5 4 4 4 4 5 6 6 6 6 6 7 7 8 8 9 9 9 9 9 8 7 7 10 8 9 8 6 4 9 11 12 10 9 8 9 9 10 11 11 12 12 12 12 12 11
2 4 2 3 2 2 2 2 6 1 2 4 2 3 5 1 1 2 2 1 1 1 2 2 2 2 3 1 1 3 5 8 10 10 10 9 8 8 8 6 6 6 7 9 8 8 8 6 7 6 6 6 5 5 4 5 5 6 4 5 7 7 7 8 9 9 8 7 7 8 7 6 4 4 5 5 7 6 6 6 6 10 10 9 7 8 9 9 10 11 11 12 12 11 10 10 9
2 2 5 2 2 2 6 6 9 1 2 3 3 6 6 1 0 0 1 3 2 1 2 4 1 5 2 1 3 4 4 11 12 12 11 9 9 8 9 8 8 8 8 9 8 8 8 7 6 6 6 6 5 5 5 4 4 5 4 3 4 6 6 7 6 5 5 5 6 5 4 3 3 3 4 5 4 6 6 8 8 8 10 9 8 8 8 9 9 10 11 12 11 10 8 5 5
4 2 2 3 5 1 7 4 6 3 1 3 3 1 3 3 6 1 1 1 3 0 3 2 2 3 1 2 1 5 9 10 12 13 13 14 12 13 11 9 9 8 9 9 8 9 8 7 6 6 6 6 6 6 5 5 5 5 5 3 3 4 5 6 5 5 4 4 4 4 3 3 3 3 4 4 4 6 7 8 8 8 9 9 8 7 8 8 9 10 11 11 10 8 5 3 3
1 4 1 2 8 1 5 4 4 2 4 5 5 2 2 1 4 1 1 1 1 4 4 2 3 7 6 1 4 9 9 10 12 14 14 13 13 13 12 12 10 10 9 10 8 7 7 7 8 8 7 7 6 5 5 5 5 5 5 5 3 4 4 3 4 4 4 4 4 3 3 3 3 3 5 7 6 4 5 7 8 10 9 8 9 6 6 7 9 11 10 8 5 3 3 3 2
1 3 3 2 5 2 1 6 3 4 1 5 4 1 2 2 3 3 4 2 4 7 8 7 10 10 8 4 8 10 11 11 11 10 12 13 11 10 11 11 10 8 7 7 6 7 9 8 6 8 8 6 7 5 6 6 5 5 5 5 4 4 4 3 3 4 4 4 4 3 3 3 3 3 3 3 3 3 3 3 3 3 3 4 6 4 3 3 3 3 3 3 3 3 3 2 2
4 0 0 2 2 2 1 3 1 2 1 7 4 7 4 2 2 4 8 5 6 6 5 10 7 3 10 11 11 10 11 12 13 12 14 14 14 13 10 8 7 7 5 8 9 7 9 8 6 6 8 8 8 7 7 5 6 5 6 6 4 3 4 4 3 4 3 3 3 4 3 4 3 3 3 3 3 3 3 2 2 3 3 3 2 3 2 2 2 2 3 3 2 2 2 2 2
2 1 0 2 1 1 0 1 2 4 3 6 6 3 3 3 2 1 6 8 4 4 2 5 6 6 4 6 11 11 12 15 15 16 15 14 13 12 12 10 10 10 7 8 7 6 7 9 7 7 8 9 10 8 6 5 7 6 5 6 6 5 4 6 5 4 3 4 4 4 4 3 3 3 3 3 3 2 3 2 2 2 3 2 1 3 3 1 1 2 2 2 2 2 2 2 2
3 2 1 0 1 2 2 1 1 1 7 5 2 1 1 3 4 1 3 8 5 1 2 6 6 4 8 11 13 16 17 17 19 16 15 16 14 14 11 11 8 6 8 9 8 7 7 10 9 8 8 9 8 9 9 6 7 7 6 6 6 6 4 5 6 4 4 3 4 3 3 4 4 4 4 4 3 2 3 2 2 2 2 2 2 2 3 1 1 1 2 2 2 2 2 2 2
2 1 1 1 1 1 2 2 3 1 1 0 2 4 0 3 1 1 7 7 3 6 5 1 4 5 5 9 14 12 13 12 12 12 8 8 8 7 6 6 6 7 9 9 8 8 9 8 9 10 8 10 9 8 9 8 7 7 6 5 6 7 5 3 3 5 5 3 4 4 5 5 4 4 4 4 3 3 3 3 3 3 2 2 3 2 2 3 2 1 2 2 2 2 2 2 1
1 1 4 2 1 2 0 3 4 2 2 1 4 1 2 3 2 3 9 4 4 5 2 2 5 5 7 9 12 12 14 14 11 11 12 8 7 9 10 9 8 11 10 9 8 8 7 8 9 10 9 9 9 9 8 8 9 8 9 6 6 7 8 5 5 4 3 5 6 4 4 4 5 5 5 4 5 5 3 3 3 3 3 2 3 3 2 2 3 2 2 2 2 2 2 1 1
4 5 3 5 1 0 4 3 2 2 2 1 2 1 0 1 1 5 1 1 7 1 2 2 3 8 8 6 7 8 11 13 12 7 4 7 8 11 11 10 12 12 9 11 9 7 7 9 9 9 8 7 7 9 8 9 9 9 9 7 6 6 6 7 5 4 4 5 5 4 4 4 4 3 4 4 4 5 5 4 3 3 3 3 3 3 2 3 2 2 3 3 3 3 2 1 1
5 9 5 7 3 5 2 3 4 1 1 3 2 1 0 2 1 6 2 4 3 2 1 1 2 3 5 5 6 5 6 4 4 7 12 11 12 12 11 12 13 11 12 12 9 8 7 10 10 10 9 8 8 9 7 8 10 10 8 8 7 6 8 6 6 6 4 4 6 7 4 4 4 3 4 5 5 5 6 6 4 4 3 3 3 3 3 3 3 2 2 2 2 2 2 2 1
3 1 3 3 4 1 8 2 3 2 0 2 1 1 1 1 5 4 4 5 5 1 0 2 3 4 4 4 5 6 7 5 5 8 13 13 10 8 12 11 9 11 9 9 9 9 10 9 10 10 10 9 10 9 8 7 7 9 9 9 8 5 7 7 6 6 6 4 6 6 4 4 4 4 4 5 5 4 6 6 6 4 4 3 3 4 4 3 3 3 2 2 2 2 2 2 1
2 8 4 3 3 2 2 1 3 1 0 3 2 3 6 7 11 9 4 7 3 1 1 3 4 5 5 5 6 7 5 5 9 12 10 9 8 9 11 9 9 9 7 6 8 11 9 7 7 7 9 11 10 9 9 8 7 8 8 8 7 8 6 6 7 6 6 6 5 5 5 5 4 4 4 5 4 4 5 5 6 5 4 4 4 4 4 3 3 3 3 3 3 3 3 2 2
6 1 5 1 2 3 2 1 6 4 2 3 0 2 7 7 2 2 3 3 0 3 4 5 4 5 5 5 6 8 8 8 11 9 9 9 8 7 9 7 9 9 6 8 12 12 11 10 7 7 8 11 10 10 9 9 8 7 8 8 8 9 8 8 6 6 7 6 7 5 6 5 5 5 5 5 5 4 5 5 5 5 4 4 4 4 4 3 3 4 4 4 2 2 2 2 2
3 6 2 2 4 3 6 1 5 3 1 4 4 1 8 8 9 6 3 4 1 3 5 6 6 6 6 6 7 8 10 7 10 11 11 10 9 10 10 11 8 9 11 10 9 9 11 11 11 10 9 10 11 11 10 9 9 8 7 7 8 8 8 9 8 7 7 7 7 7 10 8 7 7 6 5 5 5 6 5 5 4 6 5 4 4 5 6 5 4 4 5 5 5 4 4 3
5 2 1 3 1 3 4 0 2 3 0 4 2 5 4 3 2 2 3 4 4 3 6 6 6 7 7 7 6 7 8 10 9 12 13 11 10 10 10 11 10 11 10 10 11 10 11 11 12 13 13 13 11 11 11 9 8 8 8 8 8 8 8 8 8 9 9 9 9 8 9 10 9 8 8 7 5 6 6 5 6 7 6 6 6 5 4 3 5 5 5 5 5 4 5 5 5
2 3 2 3 3 2 2 4 1 5 1 3 4 1 6 4 7 8 6 2 2 5 7 8 7 7 7 6 6 8 9 9 12 12 14 11 9 12 10 9 10 9 9 10 10 12 12 10 11 12 11 11 11 10 10 10 9 8 7 7 7 8 8 8 8 8 8 8 8 9 10 10 11 11 10 8 7 6 6 6 4 6 7 7 7 7 8 8 7 7 7 7 8 7 7 8 8
8 3 3 0 1 2 3 2 1 2 2 1 1 2 11 11 9 11 6 1 2 7 7 7 7 8 7 6 7 9 9 10 14 10 7 6 10 10 10 10 9 9 8 9 9 9 8 9 9 11 11 11 11 10 9 8 8 8 7 7 8 9 8 7 7 8 9 8 8 9 10 10 10 12 12 11 10 8 8 7 6 6 4 3 4 6 4 4 5 6 7 5 2 3 3 2 2
9 10 6 5 5 4 2 4 3 1 1 2 2 6 7 9 10 12 4 1 2 7 5 6 8 8 8 8 8 8 8 12 10 6 7 7 7 8 9 8 9 9 8 8 10 9 10 9 9 9 10 10 9 8 8 7 6 7 8 7 8 8 8 8 8 10 9 10 10 10 10 10 9 8 7 6 6 7 7 6 7 6 7 7 7 7 7 6 8 7 8 6 6 4 4 3 2
7 6 6 5 5 1 2 2 0 1 1 4 3 5 6 11 11 12 12 1 4 7 10 8 6 7 7 7 8 8 8 12 4 5 6 7 6 6 6 6 8 8 9 10 10 11 12 11 9 12 10 9 8 8 8 9 9 8 8 10 10 7 7 6 6 6 7 7 8 10 11 11 12 13 13 14 11 10 10 8 7 7 8 8 9 9 7 6 7 7 5 4 6 6 5 2 3
7 6 5 1 1 2 1 1 2 2 2 1 1 3 9 11 11 12 8 2 10 9 8 8 9 7 7 7 9 7 9 5 6 8 6 5 6 5 5 5 5 9 10 9 12 12 10 8 10 10 6 9 10 10 9 8 9 9 8 8 7 7 6 7 7 6 7 7 8 7 6 6 9 10 11 12 12 11 9 8 7 8 7 7 9 12 10 9 9 7 6 5 4 6 5 5 3
4 5 4 3 3 2 2 1 2 3 1 4 1 4 9 11 10 10 5 6 6 3 3 6 6 10 8 7 7 8 7 10 6 8 6 8 7 6 4 5 5 7 4 8 9 7 8 9 10 8 7 9 10 9 8 9 7 7 8 6 5 4 3 5 7 6 6 5 5 8 9 9 6 6 6 7 8 10 12 12 12 11 10 9 7 7 8 9 9 10 10 8 5 5 6 5 8
7 6 4 5 2 3 1 3 1 4 2 1 1 4 10 7 8 8 5 3 6 5 7 8 5 8 9 9 6 8 11 9 10 9 10 8 7 8 6 4 5 4 6 5 6 8 7 8 8 7 7 7 8 8 9 6 5 4 4 4 3 5 5 3 4 3 6 8 9 7 5 5 8 10 12 13 12 11 11 11 10 9 11 12 13 11 10 10 8 8 9 10 7 5 5 8 9
1 4 4 5 2 2 2 2 0 1 1 1 0 2 7 4 4 4 1 5 4 5 7 3 2 5 7 8 7 6 9 7 9 9 8 7 8 7 7 6 4 4 5 6 6 6 6 8 7 8 8 8 7 8 9 6 4 4 3 2 1 1 1 2 3 5 5 5 6 7 9 8 8 7 5 6 8 10 9 8 7 7 8 7 8 8 8 12 11 10 11 11 11 11 8 7 7
1 4 6 5 5 7 0 1 2 4 1 6 3 3 2 4 7 7 7 8 9 4 6 6 6 5 4 5 6 6 4 5 7 7 8 8 6 8 6 6 5 3 4 4 4 5 6 6 7 7 7 7 8 8 9 8 8 7 6 6 7 5 7 5 8 10 7 7 9 6 6 7 7 8 8 8 8 8 9 11 13 13 12 11 11 10 9 7 7 8 10 10 11 11 11 10 6
5 4 5 4 8 8 7 4 3 1 1 3 2 2 3 7 6 3 4 8 7 6 4 5 6 7 6 6 6 6 6 6 3 3 5 7 8 7 7 6 5 5 5 4 4 5 6 6 7 8 8 7 7 8 9 8 8 8 10 10 10 9 9 9 7 6 7 6 5 6 6 6 7 8 8 8 8 9 10 8 7 7 7 8 10 11 11 11 11 12 10 10 11 12 11 9 9
5 1 6 8 9 8 5 6 2 1 1 1 6 4 1 5 8 4 3 3 4 5 6 6 7 7 7 7 7 6 7 5 5 6 6 5 5 5 6 6 5 5 5 4 3 2 4 6 6 7 6 6 7 7 8 9 9 9 9 10 8 9 9 10 5 5 4 4 6 8 7 6 7 8 8 8 8 7 6 7 8 10 11 12 10 10 10 10 8 8 12 15 13 10 11 11 10
1 2 4 5 6 5 6 6 5 1 0 4 4 5 0 4 8 5 4 1 4 3 4 5 6 6 7 7 8 7 7 6 5 5 6 6 6 6 5 6 6 5 5 5 4 3 1 2 4 3 5 5 5 6 7 7 6 7 7 6 6 6 6 6 1 3 5 5 7 6 6 7 7 8 8 9 9 9 7 7 7 8 8 9 8 10 11 12 15 15 13 11 12 13 11 13 11
1 6 7 8 8 7 5 4 5 1 3 4 2 4 2 7 6 6 2 0 1 1 1 3 4 4 5 7 7 7 6 5 4 3 3 4 4 5 5 4 6 6 5 4 5 4 3 3 3 3 3 1 2 4 4 4 4 4 5 5 7 7 5 5 4 5 4 3 6 7 6 6 6 7 8 8 8 9 9 8 7 7 7 7 8 10 9 8 7 8 10 11 12 13 11 12 13
10 4 9 7 9 5 4 7 3 3 1 5 2 4 1 3 4 5 1 2 5 4 1 1 3 5 6 4 4 5 6 6 6 6 6 5 3 3 4 8 5 6 6 6 7 6 5 4 3 4 2 2 2 2 3 5 5 5 6 7 8 8 8 7 6 7 6 5 7 7 7 6 5 7 7 7 8 8 9 10 10 10 9 7 7 6 7 8 7 6 7 10 13 16 13 13 16
6 4 5 7 5 6 5 5 5 2 4 3 2 2 2 5 4 3 8 4 4 7 5 4 5 4 4 4 5 5 4 4 4 6 8 7 8 9 6 9 7 5 6 7 6 6 6 5 4 5 4 3 2 1 3 4 5 5 6 7 8 8 7 7 8 9 7 9 8 8 6 5 5 5 6 6 7 8 8 9 10 10 9 8 9 7 7 7 8 9 9 9 9 11 10 9 10
4 7 7 8 1 4 1 3 1 4 5 1 3 1 1 6 9 2 4 4 5 7 4 3 1 3 4 4 5 5 3 3 6 7 7 9 9 9 10 8 9 10 9 8 7 6 5 6 6 5 4 5 4 3 0 1 2 3 4 5 6 5 6 7 8 8 7 7 7 7 6 6 6 5 6 8 9 9 8 8 9 8 8 9 10 9 9 9 7 5 6 9 11 13 12 13 12
3 9 7 6 3 2 2 2 1 5 5 4 1 1 2 4 10 10 10 8 5 6 7 6 2 1 2 3 4 4 4 4 5 6 7 8 8 7 7 8 8 8 9 9 8 8 6 6 6 7 5 5 4 4 2 2 2 3 3 4 5 5 6 7 7 7 7 7 7 8 7 7 7 8 8 9 9 9 9 10 9 10 9 9 9 10 10 9 9 10 10 8 8 9 9 13 15
6 1 6 8 8 5 4 4 4 5 5 2 3 1 6 5 4 0 6 5 2 3 5 3 4 5 5 6 5 2 3 4 4 7 7 7 8 7 8 8 8 8 8 8 7 7 7 7 7 8 7 6 5 3 1 1 3 4 4 4 5 4 5 5 6 6 6 6 6 6 7 6 7 8 8 8 7 7 9 9 10 11 10 10 10 10 9 9 9 7 7 9 9 8 8 9 10
0 3 5 5 6 5 2 3 3 2 1 1 1 5 3 3 0 4 3 5 1 2 5 2 3 1 1 1 3 3 4 4 4 6 7 7 6 6 7 8 8 8 8 8 9 8 8 8 7 7 7 6 5 5 4 2 3 3 4 4 5 4 4 4 5 5 6 6 7 6 7 7 7 7 7 7 7 7 8 8 8 10 10 10 10 10 10 9 9 9 9 9 9 6 8 10 11
4 4 4 4 2 11 7 2 1 1 4 4 2 7 6 8 5 1 1 2 2 2 2 3 4 4 4 5 3 3 3 4 5 6 6 5 5 7 7 7 7 7 9 9 8 7 7 7 8 8 8 8 8 7 6 5 4 4 5 4 4 4 4 6 6 7 7 6 5 6 7 7 6 7 7 6 7 7 8 8 8 9 9 10 10 11 11 10 10 10 9 10 12 9 9 10 9
9 2 7 2 2 6 5 3 3 4 3 6 2 6 4 3 5 3 2 5 1 2 4 6 4 5 7 5 3 2 3 3 3 4 4 6 6 6 6 7 8 9 8 8 8 6 6 6 6 7 7 8 7 7 7 6 6 6 6 6 5 4 5 5 5 7 6 6 6 5 6 6 7 7 7 7 6 8 8 8 8 9 9 9 10 10 10 9 9 9 10 11 11 10 11 10 10
3 3 4 6 2 2 2 5 1 1 1 4 2 2 5 5 6 0 4 7 5 3 4 6 7 6 7 5 2 0 1 3 4 4 4 5 7 7 7 8 7 7 7 7 6 6 6 7 6 6 7 5 4 5 5 5 4 4 4 5 6 6 5 5 5 5 5 6 7 6 7 7 7 7 6 7 7 8 8 8 8 9 8 9 9 9 9 9 9 9 9 10 10 10 10 12 12
2 2 3 1 3 2 4 6 3 5 3 2 5 3 5 8 7 10 9 11 9 7 6 8 9 9 7 5 4 4 3 4 4 6 7 7 7 7 8 8 9 9 8 7 7 7 10 8 8 8 6 5 6 7 6 7 5 4 5 5 5 4 5 5 5 5 6 6 7 7 7 7 8 7 7 7 7 8 8 8 8 8 8 8 9 9 8 9 9 9 10 9 10 9 11 12 11
2 2 2 1 2 2 5 2 3 4 5 5 2 3 5 7 7 7 9 7 9 13 12 9 8 9 7 6 6 4 4 5 5 5 6 7 7 7 8 7 6 5 5 7 8 9 7 7 9 9 10 10 10 9 8 7 6 6 6 6 6 6 6 5 6 5 6 7 6 6 6 7 5 8 7 7 7 8 8 8 8 8 9 9 9 9 8 8 9 10 10 10 10 10 12 11 10
6 9 11 11 10 5 5 6 2 2 3 4 5 8 6 9 2 7 6 7 10 10 16 12 10 8 7 5 4 3 5 3 4 4 5 6 6 7 6 6 4 7 9 10 8 8 9 10 8 8 8 8 9 10 9 8 6 6 7 6 6 5 5 5 5 6 6 6 6 6 6 6 7 8 6 7 8 7 7 7 8 8 9 9 9 10 9 8 9 10 11 10 10 10 11 12 10
Wind_Direction
12 11 16 65 59 103 52 3 166 326 55 163 334 164 188 49 194 100 220 6 160 239 193 84 137 146 180 202 188 170 234 127 206 140 193 281 287 151 130 146 140 142 145 149 156 165 168 154 137 145 134 111 109 118 116 110 104 107 110 111 113 109 107 104 105 97 89 91 95 102 103 95 93 91 90 91 91 88 85 88 89 87 85 89 91 91 89 88 86 86 85 88 89 89 91 94 88
28 358 47 24 36 38 251 128 98 349 38 75 243 104 245 268 83 210 174 186 199 126 221 119 98 90 73 66 108 131 76 315 179 60 66 118 133 141 142 157 147 147 149 153 160 165 160 159 151 154 130 119 121 117 113 106 105 105 107 108 113 112 112 114 114 101 91 89 98 99 97 98 95 93 90 87 83 87 90 89 91 93 91 86 86 92 97 94 90 84 85 90 91 92 93 90 86
13 19 21 27 38 69 93 29 290 1 87 237 270 208 1 150 204 224 208 193 232 191 161 89 120 27 8 71 78 38 193 13 171 262 92 134 135 189 165 157 151 146 149 153 156 160 154 153 139 148 131 127 124 120 109 104 106 107 110 111 110 112 111 104 108 101 95 94 94 98 95 95 98 96 94 92 90 90 91 94 94 95 95 92 91 94 98 96 91 89 89 89 92 93 91 91 88
88 40 133 63 263 33 56 27 85 124 127 199 314 253 187 185 228 206 235 239 134 96 336 131 150 242 76 22 273 108 21 351 218 143 132 160 179 139 159 156 147 144 147 150 156 156 145 154 148 155 131 130 126 117 111 110 113 112 106 104 101 106 111 106 107 100 100 102 100 100 98 96 91 93 93 87 91 98 100 101 99 92 88 88 91 93 96 96 93 93 92 92 93 95 93 88 87
56 342 69 99 106 5 104 89 132 90 210 188 181 261 236 206 198 186 101 191 184 68 38 170 84 355 119 84 115 115 190 223 172 232 134 142 99 143 156 152 147 147 151 154 156 156 158 159 156 155 135 132 124 119 119 121 118 115 112 112 112 106 104 108 114 112 106 105 106 102 101 97 98 98 93 96 97 103 107 102 101 97 94 94 95 96 95 95 97 98 97 95 90 87 87 87 89
57 44 3 81 35 153 70 81 51 159 216 151 124 239 220 207 162 189 118 123 257 222 178 326 171 192 98 318 199 91 208 93 153 212 166 163 149 148 155 146 148 149 153 151 157 157 160 160 156 159 139 133 128 125 125 125 123 121 121 115 115 121 122 125 125 113 111 114 106 97 95 97 97 100 98 96 100 105 107 104 100 101 100 99 99 103 104 99 97 95 90 89 96 93 92 90 89
237 46 2 34 46 51 175 139 226 193 289 157 291 278 227 190 200 134 118 103 322 345 130 231 79 132 81 292 30 253 218 90 144 212 176 156 149 151 154 150 149 149 154 153 154 153 154 167 160 158 140 135 131 129 132 127 126 125 123 121 119 118 112 117 124 115 108 105 101 105 99 100 100 102 105 105 104 103 103 110 108 93 89 99 103 103 105 104 101 99 99 97 96 100 96 97 93
53 140 317 103 319 33 51 163 236 173 19 181 246 270 283 217 159 143 164 123 234 200 247 269 287 92 248 95 146 217 349 201 239 281 142 151 146 151 158 155 153 149 155 156 155 154 159 171 161 158 142 137 134 137 135 134 132 132 128 129 127 124 126 121 120 114 113 114 109 110 108 99 101 103 106 107 105 105 112 112 106 106 111 109 106 101 105 108 108 103 98 101 104 106 102 92 90
4 83 281 74 69 30 71 70 263 244 294 280 277 221 309 162 214 131 156 215 334 200 283 249 221 195 212 62 112 273 291 342 185 156 141 151 154 155 159 161 157 151 140 148 155 155 160 167 160 161 143 139 138 139 136 137 139 140 138 133 134 131 128 126 124 121 119 116 115 114 114 109 103 105 107 108 108 111 111 110 103 97 97 103 104 106 105 102 103 103 105 104 104 101 99 96 95
45 48 264 121 131 147 7 286 110 171 236 241 246 243 163 171 102 86 155 255 220 104 249 275 267 142 130 119 102 326 92 323 126 133 146 152 154 157 159 161 159 154 139 146 150 160 159 162 157 161 144 140 141 140 141 143 146 144 142 139 137 136 134 133 127 121 123 125 120 118 113 110 109 111 108 108 110 111 115 116 106 103 100 91 87 94 95 101 105 105 102 102 107 103 100 97 93
42 19 129 88 25 81 160 261 267 317 265 308 281 245 204 150 119 93 85 238 65 171 279 297 264 138 118 219 203 267 332 197 143 150 153 156 154 162 161 162 160 161 160 149 144 156 165 162 158 156 147 145 142 144 149 152 150 146 141 138 132 130 129 130 125 117 112 118 116 117 109 115 115 109 106 106 107 110 114 113 105 105 99 100 96 96 103 103 103 101 99 100 100 104 100 95 96
31 20 13 97 155 150 230 161 276 284 292 308 131 238 203 141 96 124 185 181 190 241 200 155 223 153 56 348 231 209 344 164 156 151 156 154 158 162 160 158 162 165 167 152 144 152 157 160 158 154 148 145 145 147 154 152 150 145 141 137 131 128 130 131 127 120 114 119 121 120 123 119 118 115 107 105 103 110 117 122 113 108 103 97 96 98 101 100 96 95 99 102 101 101 98 96 95
108 91 85 86 178 170 182 106 247 304 340 288 137 232 151 119 166 172 178 179 78 144 277 204 157 81 130 182 257 315 149 176 153 148 151 157 159 156 155 162 167 166 168 166 159 152 151 158 158 153 148 148 144 148 148 146 144 143 142 138 138 134 135 133 135 124 119 121 122 106 90 102 104 115 118 111 110 114 118 116 119 116 109 103 106 110 107 104 105 106 107 109 108 108 108 107 103
116 179 132 145 40 113 142 191 332 118 281 212 275 151 197 128 225 168 127 162 212 175 260 220 145 150 108 28 248 167 210 166 149 146 141 152 144 152 159 162 165 168 172 171 170 164 151 155 158 152 138 149 142 141 141 140 139 141 137 135 136 137 137 133 125 122 91 75 83 95 104 106 113 122 124 126 120 105 90 85 119 118 110 106 101 105 108 105 109 112 115 117 117 115 115 115 108
122 151 84 114 48 68 232 87 174 135 205 186 159 142 180 307 106 112 163 169 251 214 310 246 203 155 215 148 237 211 183 166 147 139 134 132 142 156 163 166 168 166 174 178 174 172 163 154 158 153 148 144 143 128 134 136 138 138 138 138 134 130 117 107 105 80 79 77 79 83 89 91 86 81 87 98 100 104 97 89 62 95 102 102 100 108 115 118 117 120 120 119 121 121 118 115 105
134 94 79 103 167 129 223 123 241 98 257 180 197 254 115 14 207 112 249 151 264 320 80 212 30 253 232 105 243 226 156 147 141 133 134 140 144 156 163 166 171 177 182 185 177 174 170 159 151 158 158 152 144 131 132 127 132 137 138 137 132 123 111 98 86 81 78 77 78 82 83 86 85 87 92 98 102 106 96 76 95 106 108 108 113 122 120 123 127 127 125 122 120 120 114 99 97
75 81 65 38 145 182 209 157 155 169 242 249 281 198 153 201 338 272 122 121 136 226 330 260 244 359 176 133 203 355 156 140 132 136 139 145 150 155 164 165 176 186 186 193 189 181 177 161 159 162 163 157 152 139 143 145 142 134 132 135 130 121 115 103 99 96 92 85 92 88 87 84 88 89 94 95 107 111 114 81 95 116 110 112 122 134 134 132 134 127 125 121 113 99 81 76 76
55 73 116 59 203 121 197 170 191 194 116 196 178 211 126 180 90 339 110 37 41 312 293 302 294 264 229 240 312 288 165 145 146 147 154 154 159 162 169 178 179 192 190 192 194 189 184 182 165 162 160 158 154 152 163 152 149 143 134 138 138 129 119 117 111 113 107 104 97 96 92 94 96 95 98 108 109 117 107 89 85 100 111 117 128 139 139 137 124 131 121 103 99 92 81 90 82
90 129 87 195 190 227 155 198 186 121 290 158 178 238 157 190 142 225 109 281 8 247 280 356 315 292 315 320 274 160 159 151 156 161 161 166 171 173 179 177 187 188 196 195 194 192 189 187 172 164 166 160 157 159 161 158 156 160 156 141 137 135 128 124 123 121 120 118 111 107 106 106 102 101 107 118 112 121 117 103 94 90 106 113 114 125 128 130 139 121 101 99 92 85 85 84 81
212 113 154 255 206 224 211 178 192 223 130 123 137 206 132 178 140 176 181 215 31 221 225 304 268 244 211 278 132 161 162 160 164 169 173 174 179 180 184 187 192 195 194 194 189 187 189 192 179 183 171 165 164 165 163 161 164 163 164 164 158 151 141 132 128 124 128 127 119 119 117 107 103 106 106 111 112 113 119 112 104 90 84 82 86 88 93 113 104 88 86 85 85 75 91 89 91
216 80 157 225 183 112 233 188 237 211 138 149 136 137 146 215 188 141 167 103 262 260 229 192 211 225 202 203 166 163 164 164 171 177 179 186 189 191 195 194 192 192 192 183 190 185 193 193 178 182 182 173 171 168 168 170 166 162 161 166 161 166 156 137 135 136 137 133 132 130 124 117 114 112 118 116 116 116 113 112 104 96 93 81 96 87 88 66 75 89 87 72 82 92 97 94 109
97 68 203 158 164 71 225 203 225 161 163 114 126 124 206 115 91 116 149 180 232 212 255 221 237 219 166 169 176 168 169 169 176 183 189 190 191 194 195 196 185 186 164 184 195 190 189 188 189 173 179 187 186 185 182 169 164 178 164 168 161 172 167 161 149 154 149 146 145 136 129 125 121 126 127 128 126 131 125 130 116 106 99 95 92 103 95 86 87 97 93 93 87 82 76 81 69
176 321 319 193 217 111 300 287 234 140 133 142 149 195 89 151 123 214 166 205 224 233 250 278 245 200 183 149 155 171 174 179 183 191 190 194 198 199 198 194 187 193 188 197 187 192 186 188 189 179 183 188 190 193 183 171 188 198 175 166 176 186 179 178 174 166 158 152 146 149 147 147 141 142 143 143 142 145 135 137 124 111 110 105 93 113 94 77 91 105 97 90 81 88 78 67 69
103 163 124 173 205 43 289 280 123 133 135 178 205 47 122 139 179 160 213 237 210 193 267 257 266 190 154 151 176 177 184 185 193 194 193 196 195 199 197 198 195 189 198 201 194 191 189 192 189 187 190 187 190 188 191 191 193 194 188 159 181 182 169 190 190 177 157 162 161 164 157 158 160 160 160 160 154 150 148 130 121 119 105 108 113 107 116 102 100 85 101 95 98 78 90 73 75
100 99 195 149 98 313 345 69 83 125 77 334 110 125 307 198 172 86 249 246 275 302 348 65 117 138 157 166 180 190 194 198 198 197 197 203 200 193 202 200 192 190 203 203 198 194 195 192 187 196 192 192 194 187 192 197 201 197 187 174 188 169 187 180 179 178 181 168 175 172 167 164 172 170 168 165 155 159 146 145 147 133 125 127 135 124 131 135 120 117 118 119 102 107 108 101 96
147 146 124 116 73 330 14 66 47 39 115 43 101 33 331 243 276 237 251 295 291 300 45 57 125 147 179 190 189 186 194 200 197 196 201 190 180 189 206 202 199 204 205 201 197 201 190 186 196 198 196 192 195 191 192 196 201 204 202 193 193 175 198 194 163 185 183 183 188 183 185 178 177 176 168 159 172 170 157 149 153 150 147 148 152 149 157 145 146 147 130 125 129 131 131 126 146
131 106 101 102 331 345 17 129 5 331 94 305 152 233 118 304 25 277 327 286 323 62 30 354 174 181 199 205 213 210 196 199 198 181 183 203 207 205 207 203 207 210 195 204 202 198 184 186 198 199 196 195 191 196 191 194 195 208 203 204 189 185 185 190 180 177 181 196 196 182 186 189 175 177 170 166 175 174 176 171 173 157 160 162 167 145 151 154 150 157 159 156 161 154 146 142 171
84 135 111 43 352 70 13 66 21 324 34 25 139 137 247 322 92 230 216 348 319 111 1 348 317 255 219 232 234 240 238 210 164 176 202 200 212 208 202 203 208 202 204 206 203 194 185 192 195 196 199 196 200 202 192 191 194 201 204 200 203 185 191 192 186 193 188 191 191 195 192 187 181 174 172 170 180 177 182 186 181 179 173 168 171 155 148 154 146 132 127 133 137 148 138 149 157
154 194 114 312 12 51 19 48 324 7 147 18 252 94 308 175 220 256 258 322 19 105 217 310 276 281 292 273 261 241 228 215 205 208 214 214 216 211 218 212 202 205 212 205 199 192 198 192 192 194 193 198 202 204 203 199 190 192 200 202 207 187 184 189 192 189 200 178 189 189 186 185 189 182 179 178 178 177 186 187 193 192 179 172 165 153 140 140 141 139 130 142 140 144 147 147 133
111 41 117 44 11 354 2 318 340 29 278 348 293 271 272 267 255 269 318 344 358 43 299 280 265 271 285 281 255 259 250 223 225 223 220 222 220 216 226 217 206 207 202 199 194 206 200 200 191 190 192 198 201 205 204 206 198 191 193 199 195 199 197 196 196 191 190 186 174 178 182 185 188 189 181 182 183 180 181 189 194 195 185 173 161 157 161 156 154 155 155 165 171 178 180 170 176
125 235 57 107 110 249 329 46 316 135 329 1 97 206 282 277 280 330 337 353 266 291 292 294 283 276 253 251 257 254 253 228 237 246 241 233 230 228 229 221 211 204 184 199 205 205 198 202 194 203 190 199 197 205 204 207 204 196 192 194 196 191 199 204 198 192 193 187 186 176 177 184 186 190 193 184 188 184 181 189 197 198 177 172 171 175 159 158 159 173 170 178 163 186 180 179 200
26 84 271 334 167 274 303 49 22 170 15 38 95 310 248 264 271 288 321 23 100 255 288 289 285 270 256 247 244 249 252 247 254 253 245 239 227 229 221 224 210 204 204 202 204 198 205 200 197 204 197 203 201 203 207 208 206 203 196 192 191 189 193 198 198 196 193 192 191 190 193 180 180 189 194 193 190 192 189 192 199 179 180 179 183 168 171 172 175 171 194 183 177 196 182 188 192
2 85 229 193 107 251 339 32 50 346 277 359 157 219 326 320 264 278 314 57 60 11 302 295 292 274 266 248 239 246 264 258 250 244 242 234 232 228 225 223 215 213 206 199 198 197 207 203 198 201 203 205 205 202 205 207 205 206 201 197 197 190 194 198 199 199 197 195 191 192 187 192 194 189 187 191 197 195 198 196 191 185 179 184 178 178 207 208 169 174 187 207 211 183 192 191 190
240 24 143 211 169 226 250 308 346 356 88 215 9 195 232 239 282 290 298 283 303 301 280 280 279 276 265 269 255 252 244 255 252 241 237 225 234 228 229 227 224 216 215 210 203 200 205 200 203 204 205 202 203 206 202 205 207 206 207 204 198 203 200 196 197 198 207 201 195 196 188 190 194 199 193 187 198 205 210 211 205 185 177 182 183 179 197 191 195 190 189 195 195 185 190 194 199
187 145 80 274 294 220 224 124 252 24 29 202 343 274 273 273 287 287 279 259 201 252 255 270 280 277 272 252 253 248 251 249 251 250 258 239 233 233 229 226 222 217 217 213 209 210 203 203 205 207 206 201 202 202 200 200 200 204 205 206 209 211 209 203 197 204 202 200 200 199 196 194 193 192 190 191 196 201 202 204 194 181 183 208 203 198 208 206 205 207 208 198 220 277 304 253 229
168 171 171 147 159 210 199 238 277 56 301 274 241 233 277 292 298 293 291 134 197 264 276 271 264 265 270 262 257 249 247 254 261 286 267 248 230 223 222 218 219 218 214 209 212 208 210 207 206 209 209 204 197 195 193 197 197 201 202 203 213 214 210 209 203 203 198 202 195 187 194 200 197 199 200 202 215 219 220 213 208 181 176 180 188 203 202 189 199 204 222 199 178 210 231 227 167
108 80 97 170 152 272 274 274 270 162 114 241 249 282 278 281 273 275 283 234 288 278 273 271 268 266 267 268 257 262 258 254 279 263 268 269 266 256 240 215 219 215 215 208 207 213 211 208 197 213 204 197 195 194 193 192 200 203 208 209 215 209 211 204 208 212 208 206 208 206 199 199 196 196 196 194 195 202 212 208 202 189 184 182 190 202 205 213 204 204 215 219 203 203 213 141 112
130 128 131 175 206 135 228 144 356 315 136 291 45 318 276 264 271 268 279 309 270 254 267 269 273 266 265 263 274 265 263 290 302 292 290 296 289 282 273 238 209 208 223 208 214 216 214 210 210 216 182 201 204 202 199 199 201 205 203 213 212 208 203 207 216 207 210 204 196 203 219 214 208 203 199 198 201 192 199 207 205 205 194 198 198 208 194 194 195 195 194 203 206 203 205 145 151
54 137 151 108 245 240 304 306 337 337 102 268 26 340 283 277 273 275 267 263 257 261 236 264 280 287 283 281 280 284 294 288 301 279 292 292 298 297 286 264 247 236 240 209 223 216 211 209 216 208 197 198 207 206 201 210 205 208 206 209 196 215 228 212 213 205 200 215 220 208 195 194 198 208 208 220 213 209 208 207 210 200 189 188 200 210 202 197 189 188 187 195 182 205 203 165 174
112 104 110 199 236 129 236 279 352 1 85 304 295 319 282 298 296 283 285 254 289 289 283 272 246 261 271 273 281 290 288 292 296 297 297 300 303 304 313 294 256 255 247 238 214 216 216 216 214 206 201 200 202 205 211 211 199 198 207 205 193 198 200 208 224 228 214 212 220 212 229 220 211 212 202 199 206 211 213 212 214 208 205 203 205 200 198 207 198 197 192 201 186 189 205 213 197
351 123 128 131 163 224 146 180 298 308 43 58 2 293 308 344 354 334 317 324 315 326 334 353 323 243 262 284 289 251 261 276 284 300 305 310 321 317 307 299 302 243 232 225 213 211 204 210 204 197 196 197 194 190 197 189 167 179 154 81 82 86 30 178 197 228 219 219 228 217 221 202 211 222 227 218 214 216 210 208 206 211 216 213 212 207 190 200 203 204 203 199 197 208 206 216 200
60 228 170 192 168 134 262 25 100 20 328 14 43 10 328 304 304 244 291 347 351 334 26 8 340 347 349 358 339 329 294 247 251 275 290 301 304 319 339 344 358 312 264 243 223 216 201 199 191 193 192 192 193 189 183 179 192 186 171 182 192 201 218 194 212 217 210 210 219 221 219 212 218 221 216 214 209 217 222 216 208 199 196 193 196 208 218 216 208 205 201 198 207 216 229 216 193
122 233 165 144 140 123 124 119 75 53 134 347 9 129 263 330 312 287 332 333 323 327 24 356 0 358 3 358 348 344 350 349 335 287 322 354 349 355 356 8 352 338 305 289 262 225 208 197 190 189 190 189 186 182 177 180 192 198 200 206 211 214 222 232 228 229 225 223 218 224 228 220 221 224 228 225 222 214 219 224 228 225 216 209 202 202 204 204 205 206 199 203 213 212 214 226 211
193 243 126 117 113 126 153 108 101 169 247 270 45 80 182 309 291 270 297 315 348 355 358 5 6 0 0 356 353 352 348 348 346 349 351 352 347 356 346 327 343 333 301 310 316 311 217 204 184 188 188 185 186 178 181 183 193 198 205 213 216 222 224 240 230 235 234 225 211 223 223 224 220 225 231 231 232 231 227 229 219 213 213 214 204 208 212 211 209 207 202 205 208 203 199 211 216
216 210 137 125 129 133 116 91 103 102 28 273 348 346 67 260 267 310 355 67 5 341 349 5 352 355 358 0 2 355 347 337 330 344 356 346 349 348 341 350 337 344 359 1 344 330 314 201 180 166 176 175 186 181 182 197 202 200 209 218 231 237 248 256 255 239 227 222 234 236 231 232 230 229 229 233 235 238 232 229 226 224 218 220 213 223 220 207 204 205 205 206 209 213 211 215 218
249 132 93 96 85 71 90 101 86 349 74 266 225 11 192 279 274 331 331 179 265 222 16 338 336 327 346 6 5 6 3 5 4 356 341 343 318 323 322 311 4 4 349 352 16 26 41 78 101 124 134 123 120 162 169 186 201 182 206 216 227 237 227 250 240 248 233 211 234 239 233 235 233 233 234 237 239 236 241 242 242 240 240 230 215 218 220 222 217 212 204 201 205 211 211 213 218
131 125 85 47 41 34 36 61 84 64 5 253 269 308 153 308 270 227 145 203 189 188 340 331 351 26 25 21 15 8 11 16 29 43 46 49 47 38 21 48 8 11 12 27 28 28 26 46 85 88 53 48 61 116 160 181 187 195 210 212 222 231 228 226 232 241 229 229 231 236 226 232 231 234 236 238 238 240 240 240 243 246 246 247 248 244 235 231 230 227 224 216 214 214 216 214 219
121 107 131 84 6 9 31 349 31 112 266 260 272 292 272 174 294 325 236 290 212 147 133 68 45 25 20 10 6 2 4 11 25 55 48 44 51 45 55 48 41 31 33 30 28 25 36 43 76 86 50 49 54 74 154 183 187 207 219 221 226 232 232 230 233 241 230 234 236 242 235 242 242 239 241 243 239 235 238 240 239 243 245 247 247 247 244 230 223 209 201 202 215 223 230 228 230
89 99 93 111 228 35 268 10 253 197 196 250 331 169 15 241 227 242 307 258 231 216 162 102 46 26 12 8 0 345 343 9 48 51 55 47 50 40 41 33 32 28 24 23 21 22 29 40 43 76 42 11 28 18 110 259 226 234 234 239 245 249 247 241 245 250 244 240 241 246 239 237 233 238 236 235 238 234 236 240 240 240 242 241 248 251 254 254 253 242 229 219 212 210 211 214 219
125 138 144 112 113 70 215 276 280 315 291 269 319 274 262 252 285 238 231 237 204 210 226 227 212 242 307 322 330 339 355 26 46 58 58 57 50 50 47 45 42 35 28 23 20 25 17 36 33 55 20 18 19 41 24 347 289 287 272 251 253 249 247 244 245 245 248 239 240 246 240 236 237 232 229 228 229 232 232 235 237 240 242 246 247 248 250 252 253 254 252 245 238 235 225 218 221
206 24 147 173 142 156 201 191 184 210 194 279 274 79 233 130 233 205 213 239 257 255 251 255 252 250 262 281 282 295 19 32 38 60 57 55 50 49 52 48 45 40 36 31 28 23 26 34 27 30 25 12 18 14 17 286 263 268 260 252 257 253 256 259 257 254 258 253 250 248 251 247 244 247 239 242 234 227 233 235 235 236 236 236 237 242 245 244 242 244 241 244 240 228 226 225 232
302 163 77 97 214 130 125 207 138 160 143 34 236 215 193 164 295 279 288 288 283 242 261 268 278 279 278 92 86 75 48 47 42 64 58 49 52 51 55 52 46 46 43 41 34 23 31 22 21 29 23 352 355 355 356 314 287 278 274 274 267 260 265 272 277 271 264 258 263 250 258 251 247 252 247 242 239 225 233 235 236 237 238 238 236 236 239 241 240 242 243 240 241 215 221 220 225
218 97 197 204 105 99 105 54 25 97 46 252 158 317 292 298 310 318 328 119 83 84 144 164 197 136 118 117 102 73 57 52 52 58 57 56 56 54 57 59 57 53 49 47 41 33 39 32 34 30 15 13 10 358 349 342 326 328 311 300 293 289 271 263 268 277 272 270 258 263 258 261 263 253 255 242 247 234 236 234 236 239 241 240 241 239 237 235 234 237 240 242 246 241 234 232 226
98 181 218 170 138 125 126 162 346 58 163 262 89 220 287 48 233 332 105 162 114 91 175 184 171 145 126 137 120 100 63 44 49 62 58 53 51 52 54 60 55 56 55 52 49 43 52 54 52 57 39 32 8 357 350 349 344 341 333 331 318 281 276 272 267 275 282 280 273 259 265 267 256 258 252 256 241 245 243 237 239 242 241 241 241 243 241 243 242 242 240 240 240 235 236 238 233
139 202 174 110 191 215 318 93 203 136 255 267 307 283 268 192 237 287 209 184 195 200 162 150 150 148 147 154 162 179 34 60 68 69 71 64 55 49 48 53 51 58 59 56 54 55 58 53 45 56 56 34 11 354 343 340 343 324 318 316 313 314 301 288 282 278 287 279 274 272 263 260 273 262 255 252 248 249 247 245 241 247 247 246 246 246 244 246 242 246 243 247 245 241 243 244 241
32 92 84 318 101 151 129 198 173 126 234 68 290 49 238 203 220 192 202 196 174 169 152 177 162 158 160 165 163 154 144 98 72 59 52 51 47 43 43 42 43 39 39 36 40 42 41 30 37 32 41 40 35 33 18 22 1 358 338 329 322 307 301 299 297 303 294 279 278 280 278 277 267 273 257 256 254 252 249 247 244 247 251 252 251 249 245 246 246 245 247 247 246 240 244 245 246
96 111 188 90 36 230 100 27 122 180 170 181 200 313 271 255 219 192 206 185 179 162 165 171 173 168 178 173 170 172 133 96 78 70 62 51 44 36 32 31 35 42 45 42 39 39 35 28 29 21 22 12 16 13 14 7 355 9 14 4 341 333 325 322 316 304 289 282 285 281 277 276 297 277 270 264 258 255 255 251 249 245 246 247 246 249 242 244 245 249 249 249 253 244 246 249 246
176 164 187 172 127 143 154 244 31 97 114 214 135 244 274 271 181 212 210 202 177 198 160 172 169 176 177 194 198 155 108 93 90 77 67 55 43 36 34 34 41 47 38 37 29 37 32 31 19 14 17 23 11 7 4 352 348 357 17 2 354 343 333 334 325 314 298 295 293 291 286 295 279 280 282 274 269 269 263 259 256 253 251 248 249 250 245 237 242 246 249 245 250 247 249 253 248